Weather History for Sulphur Springs, TX

Change the Weather History Date:

Sunday, March 16, 2014

  Actual Average (KGVT) Record (KGVT)
Temperature  
Mean Temperature 48 °F -  
Max Temperature 55 °F 63 °F 78 °F (2012)
Min Temperature 41 °F 48 °F 37 °F (2009)
Degree Days  
Heating Degree Days 17    
Moisture  
Dew Point 42 °F    
Average Humidity 81    
Maximum Humidity 97    
Minimum Humidity 69    
Precipitation  
Precipitation 0.00 in - - ()
Sea Level Pressure  
Sea Level Pressure 29.90 in    
Wind  
Wind Speed 15 mph (NW)    
Max Wind Speed 31 mph    
Max Gust Speed 43 mph    
Visibility 10 miles    
Events      
Averages and records for this station are not official NWS values.
T = Trace of Precipitation, MM = Missing Value Source: NWS Daily Summary

Daily Weather History Graph

Daily Weather History Graph

Search for Another Location

Airport:

Trip Planner

Search our weather history database for the weather conditions in past years. The results will help you decide how hot, cold, wet, or windy it might be!

Date:

Astronomy

Mar. 16, 2014 Rise Set
Actual Time 7:31 AM CDT 7:31 PM CDT
Civil Twilight 7:06 AM CDT 7:55 PM CDT
Nautical Twilight 6:38 AM CDT 8:24 PM CDT
Astronomical Twilight 6:09 AM CDT 8:53 PM CDT
Moon 7:47 PM CDT (3/16) 7:16 AM CDT (3/16)
Length of Visible Light 12h 49m
Length of Day
11h 59m
Full, 100% of the Moon is Illuminated
Mar 16
Full
Mar 16
Full
Mar 23
Last Quarter
Mar 30
New
Apr 7
First Quarter

Hourly Weather History & Observations

Time (CDT) Temp. Windchill Dew Point Humidity Pressure Visibility Wind Dir Wind Speed Gust Speed Precip Events Conditions
12:15 AM 55.2 °F - 52.5 °F 91% 29.74 in 10.0 mi West 3.5 mph - N/A   Clear
12:35 AM 53.6 °F - 52.0 °F 94% 29.73 in 10.0 mi West 3.5 mph - N/A   Clear
1:15 AM 52.5 °F - 51.6 °F 97% 29.74 in 10.0 mi WSW 6.9 mph - N/A   Clear
1:35 AM 52.9 °F - 52.0 °F 97% 29.74 in 10.0 mi West 8.1 mph - N/A   Clear
1:55 AM 52.9 °F - 52.0 °F 97% 29.74 in 10.0 mi West 6.9 mph - N/A   Clear
2:15 AM 53.2 °F - 52.2 °F 96% 29.75 in 10.0 mi West 12.7 mph - N/A   Clear
2:35 AM 53.2 °F - 51.8 °F 95% 29.75 in 10.0 mi West 10.4 mph - N/A   Clear
2:55 AM 53.1 °F - 51.6 °F 95% 29.75 in 10.0 mi West 9.2 mph - N/A   Clear
3:15 AM 53.4 °F - 51.8 °F 94% 29.75 in 10.0 mi WNW 11.5 mph - N/A   Scattered Clouds
3:35 AM 53.6 °F - 51.6 °F 93% 29.75 in 10.0 mi WNW 11.5 mph - N/A   Scattered Clouds
3:55 AM 53.6 °F - 51.4 °F 92% 29.75 in 10.0 mi WNW 9.2 mph - N/A   Clear
4:15 AM 53.6 °F - 51.4 °F 92% 29.75 in 10.0 mi WNW 8.1 mph - N/A   Scattered Clouds
4:35 AM 52.9 °F - 51.1 °F 94% 29.76 in 10.0 mi West 6.9 mph - N/A   Scattered Clouds
4:55 AM 52.7 °F - 51.1 °F 94% 29.76 in 10.0 mi West 9.2 mph - N/A   Clear
5:15 AM 53.1 °F - 51.8 °F 95% 29.77 in 10.0 mi West 10.4 mph - N/A   Scattered Clouds
5:35 AM 53.2 °F - 51.8 °F 95% 29.77 in 10.0 mi West 9.2 mph - N/A   Scattered Clouds
5:55 AM 53.6 °F - 51.8 °F 94% 29.77 in 10.0 mi WNW 9.2 mph - N/A   Scattered Clouds
6:15 AM 53.6 °F - 51.8 °F 94% 29.78 in 10.0 mi WNW 11.5 mph - N/A   Scattered Clouds
6:35 AM 53.8 °F - 51.8 °F 93% 29.77 in 10.0 mi WNW 10.4 mph - N/A   Scattered Clouds
6:55 AM 54.0 °F - 52.0 °F 93% 29.79 in 10.0 mi West 13.8 mph - N/A   Clear
7:15 AM 54.0 °F - 52.0 °F 93% 29.79 in 10.0 mi WNW 10.4 mph - N/A   Mostly Cloudy
7:35 AM 54.5 °F - 52.2 °F 92% 29.79 in 10.0 mi NW 9.2 mph - N/A   Overcast
7:55 AM 54.9 °F - 52.2 °F 91% 29.80 in 10.0 mi WNW 12.7 mph - N/A   Overcast
8:15 AM 54.9 °F - 51.8 °F 89% 29.82 in 10.0 mi NW 19.6 mph 26.5 mph N/A   Overcast
8:35 AM 51.4 °F - 47.5 °F 86% 29.85 in 10.0 mi NW 27.6 mph 34.5 mph N/A   Overcast
8:55 AM 50.2 °F - 46.2 °F 86% 29.85 in 10.0 mi NNW 26.5 mph 36.8 mph N/A   Overcast
9:15 AM 49.5 °F - 45.9 °F 87% 29.85 in 10.0 mi NNW 25.3 mph 31.1 mph N/A   Overcast
9:35 AM 49.1 °F - 45.0 °F 86% 29.84 in 10.0 mi NW 28.8 mph 34.5 mph N/A   Overcast
9:55 AM 49.1 °F - 44.6 °F 84% 29.85 in 10.0 mi NNW 26.5 mph 35.7 mph N/A   Overcast
10:15 AM 48.6 °F - 43.3 °F 82% 29.88 in 10.0 mi NNW 25.3 mph 32.2 mph N/A   Overcast
10:35 AM 48.6 °F - 42.3 °F 79% 29.90 in 10.0 mi NNW 27.6 mph 39.1 mph N/A   Overcast
10:55 AM 48.7 °F - 42.3 °F 78% 29.92 in 10.0 mi NNW 19.6 mph 33.4 mph N/A   Overcast
11:15 AM 47.7 °F - 41.7 °F 80% 29.92 in 10.0 mi NNW 18.4 mph 24.2 mph N/A   Overcast
11:35 AM 47.7 °F - 41.2 °F 78% 29.95 in 10.0 mi NW 20.7 mph 26.5 mph N/A   Overcast
11:55 AM 47.3 °F - 40.5 °F 77% 29.98 in 10.0 mi NNW 15.0 mph 24.2 mph N/A   Overcast
12:15 PM 46.9 °F - 40.1 °F 77% 29.98 in 10.0 mi NNW 21.9 mph 26.5 mph N/A   Overcast
12:35 PM 46.4 °F 37.7 °F 38.8 °F 75% 29.97 in 10.0 mi NNW 26.5 mph 34.5 mph N/A   Overcast
12:55 PM 46.2 °F 39.0 °F 38.8 °F 75% 29.99 in 10.0 mi NW 18.4 mph - N/A   Overcast
1:15 PM 45.9 °F 38.0 °F 38.3 °F 75% 29.99 in 10.0 mi NNW 20.7 mph 27.6 mph N/A   Overcast
1:55 PM 45.0 °F 35.6 °F 37.0 °F 74% 29.96 in 10.0 mi NNW 27.6 mph - N/A   Overcast
2:15 PM 44.6 °F 35.3 °F 36.9 °F 74% 29.98 in 10.0 mi NNW 26.5 mph 31.1 mph N/A   Overcast
2:35 PM 44.2 °F 34.1 °F 36.1 °F 73% 29.97 in 10.0 mi NNW 31.1 mph 36.8 mph N/A   Overcast
2:55 PM 44.6 °F 36.1 °F 36.7 °F 74% 29.97 in 10.0 mi NNW 21.9 mph 36.8 mph N/A   Overcast
3:15 PM 44.1 °F 35.0 °F 36.0 °F 73% 29.97 in 10.0 mi NNW 24.2 mph 33.4 mph N/A   Overcast
3:35 PM 43.7 °F 33.7 °F 34.9 °F 71% 29.96 in 10.0 mi NNW 28.8 mph 34.5 mph N/A   Overcast
3:55 PM 43.9 °F 34.3 °F 34.7 °F 70% 29.96 in 10.0 mi NNW 26.5 mph 35.7 mph N/A   Mostly Cloudy
4:15 PM 44.4 °F 35.3 °F 35.1 °F 70% 29.95 in 10.0 mi NNW 25.3 mph 34.5 mph N/A   Mostly Cloudy
4:35 PM 44.2 °F 34.2 °F 34.5 °F 69% 29.95 in 10.0 mi North 29.9 mph 38.0 mph N/A   Overcast
4:55 PM 43.7 °F 33.5 °F 34.7 °F 71% 29.94 in 10.0 mi NNW 29.9 mph 35.7 mph N/A   Overcast
5:15 PM 43.3 °F 32.8 °F 34.0 °F 70% 29.95 in 10.0 mi NNW 31.1 mph 42.6 mph N/A   Mostly Cloudy
5:35 PM 43.2 °F 33.6 °F 34.3 °F 71% 29.96 in 10.0 mi NNW 25.3 mph 35.7 mph N/A   Mostly Cloudy
5:55 PM 43.0 °F 33.3 °F 34.2 °F 71% 29.97 in 10.0 mi NNW 25.3 mph 33.4 mph N/A   Overcast
6:15 PM 43.2 °F 33.4 °F 34.0 °F 70% 29.97 in 10.0 mi North 26.5 mph 32.2 mph N/A   Mostly Cloudy
6:35 PM 43.0 °F 33.3 °F 33.8 °F 70% 29.98 in 10.0 mi NNW 25.3 mph 35.7 mph N/A   Overcast
6:55 PM 42.8 °F 32.9 °F 33.8 °F 70% 29.99 in 10.0 mi NNW 26.5 mph 32.2 mph N/A   Overcast
7:15 PM 42.4 °F 32.6 °F 34.3 °F 73% 30.00 in 10.0 mi NNW 25.3 mph 32.2 mph N/A   Overcast
7:35 PM 42.1 °F 32.8 °F 33.8 °F 72% 30.01 in 10.0 mi NNW 21.9 mph - N/A   Overcast
7:55 PM 41.9 °F 32.3 °F 33.4 °F 72% 30.02 in 10.0 mi North 23.0 mph 28.8 mph N/A   Overcast
8:15 PM 41.9 °F 32.1 °F 33.6 °F 72% 30.02 in 10.0 mi NNW 24.2 mph 28.8 mph N/A   Overcast
8:35 PM 42.1 °F 32.6 °F 33.8 °F 72% 30.03 in 10.0 mi North 23.0 mph 27.6 mph N/A   Overcast
8:55 PM 41.9 °F 32.6 °F 33.8 °F 73% 30.03 in 10.0 mi North 21.9 mph 27.6 mph N/A   Overcast
9:15 PM 42.1 °F 33.6 °F 34.2 °F 74% 30.04 in 10.0 mi NNW 18.4 mph - N/A   Overcast
9:35 PM 41.9 °F 33.4 °F 34.2 °F 74% 30.04 in 10.0 mi North 18.4 mph 29.9 mph N/A   Overcast
9:55 PM 41.9 °F 33.4 °F 34.2 °F 74% 30.05 in 10.0 mi NNW 18.4 mph - N/A   Overcast
10:15 PM 41.5 °F 32.1 °F 34.0 °F 75% 30.06 in 10.0 mi North 21.9 mph 26.5 mph N/A   Overcast
10:35 PM 41.4 °F 31.9 °F 33.8 °F 74% 30.05 in 10.0 mi North 21.9 mph 31.1 mph N/A   Overcast
10:55 PM 41.2 °F 31.4 °F 34.0 °F 76% 30.05 in 10.0 mi North 23.0 mph 27.6 mph N/A   Overcast
11:15 PM 41.2 °F 32.1 °F 33.8 °F 75% 30.06 in 10.0 mi North 19.6 mph 24.2 mph N/A   Overcast
11:35 PM 41.2 °F 32.4 °F 33.8 °F 75% 30.06 in 10.0 mi North 18.4 mph - N/A   Overcast
11:55 PM 41.4 °F 32.1 °F 34.0 °F 75% 30.06 in 10.0 mi North 20.7 mph - N/A   Overcast